LNBAK ENBR-ENSO

Flight info

Callsign LNBAK
Flight time 0h 18m
Altitude 2000
Route HORGEFJORD SELBJORN
Aircraft C210/L-SBDGRY/S

Departure

Time 2026-04-25 18:22
Airport Bergen Airport, Flesland (ENBR)

Arrival

Time 2026-04-25 18:41
Airport Stord Airport, Sørstokken (ENSO)
Time Latitude Longitude Altitude Speed Heading
2026-04-25 18:06 60.28727 5.22662 144 ft 0 kts 78°
2026-04-25 18:17 60.28725 5.22686 144 ft 4 kts 128°
2026-04-25 18:18 60.28692 5.22653 144 ft 11 kts 250°
2026-04-25 18:18 60.28692 5.22489 144 ft 12 kts 275°
2026-04-25 18:18 60.28688 5.22338 144 ft 11 kts 254°
2026-04-25 18:18 60.28677 5.22239 144 ft 0 kts 262°
2026-04-25 18:20 60.28671 5.22182 144 ft 10 kts 259°
2026-04-25 18:21 60.28682 5.22024 144 ft 11 kts 328°
2026-04-25 18:21 60.28687 5.22019 144 ft 0 kts 345°
2026-04-25 18:21 60.28734 5.21998 144 ft 28 kts 353°
2026-04-25 18:21 60.29100 5.21888 170 ft 72 kts 348°
2026-04-25 18:22 60.29603 5.21761 469 ft 67 kts 343°
2026-04-25 18:22 60.29755 5.21690 572 ft 66 kts 341°
2026-04-25 18:22 60.30083 5.20647 947 ft 98 kts 242°
2026-04-25 18:22 60.29410 5.19958 1164 ft 120 kts 205°
2026-04-25 18:23 60.28546 5.19332 1222 ft 138 kts 206°
2026-04-25 18:23 60.27627 5.18688 1427 ft 140 kts 206°
2026-04-25 18:23 60.26697 5.18033 1490 ft 149 kts 205°
2026-04-25 18:23 60.25687 5.17365 1489 ft 156 kts 198°
2026-04-25 18:24 60.24602 5.17045 1496 ft 159 kts 192°
2026-04-25 18:24 60.23502 5.16709 1504 ft 161 kts 194°
2026-04-25 18:24 60.22401 5.16317 1507 ft 159 kts 194°
2026-04-25 18:24 60.21338 5.15931 1496 ft 151 kts 194°
2026-04-25 18:25 60.20315 5.15556 1491 ft 147 kts 194°
2026-04-25 18:25 60.19312 5.15189 1491 ft 145 kts 194°
2026-04-25 18:25 60.18337 5.14833 1494 ft 143 kts 195°
2026-04-25 18:25 60.17350 5.14470 1491 ft 145 kts 195°
2026-04-25 18:26 60.16349 5.14103 1492 ft 146 kts 194°
2026-04-25 18:26 60.15350 5.13740 1492 ft 145 kts 194°
2026-04-25 18:26 60.14357 5.13377 1492 ft 145 kts 194°
2026-04-25 18:26 60.13380 5.13022 1492 ft 144 kts 194°
2026-04-25 18:27 60.12386 5.12659 1496 ft 145 kts 195°
2026-04-25 18:27 60.11379 5.12473 1493 ft 146 kts 187°
2026-04-25 18:27 60.10354 5.12287 1495 ft 149 kts 188°
2026-04-25 18:27 60.09314 5.12099 1501 ft 149 kts 187°
2026-04-25 18:28 60.08293 5.11925 1499 ft 148 kts 188°
2026-04-25 18:28 60.07269 5.11755 1497 ft 147 kts 188°
2026-04-25 18:28 60.06237 5.11583 1495 ft 150 kts 187°
2026-04-25 18:29 60.04124 5.11233 1502 ft 155 kts 187°
2026-04-25 18:29 60.02983 5.11040 1521 ft 174 kts 187°
2026-04-25 18:30 59.99126 5.10405 1516 ft 192 kts 187°
2026-04-25 18:30 59.97793 5.10191 1516 ft 192 kts 187°
2026-04-25 18:30 59.96468 5.10338 1489 ft 193 kts 160°
2026-04-25 18:30 59.95315 5.11560 1511 ft 190 kts 145°
2026-04-25 18:31 59.94172 5.12903 1518 ft 191 kts 145°
2026-04-25 18:31 59.93022 5.14242 1521 ft 191 kts 145°
2026-04-25 18:31 59.91881 5.15567 1525 ft 191 kts 145°
2026-04-25 18:31 59.90727 5.16905 1523 ft 191 kts 145°
2026-04-25 18:32 59.89575 5.18242 1521 ft 191 kts 146°
2026-04-25 18:32 59.88427 5.19571 1525 ft 189 kts 145°
2026-04-25 18:32 59.87392 5.20759 1501 ft 161 kts 144°
2026-04-25 18:32 59.86421 5.21890 1505 ft 161 kts 144°
2026-04-25 18:33 59.85463 5.23003 1506 ft 161 kts 145°
2026-04-25 18:33 59.84431 5.23846 1510 ft 160 kts 162°
2026-04-25 18:33 59.83367 5.24558 1518 ft 162 kts 156°
2026-04-25 18:33 59.82355 5.25314 1516 ft 150 kts 156°
2026-04-25 18:34 59.81414 5.26017 1526 ft 139 kts 156°
2026-04-25 18:34 59.80538 5.26695 1491 ft 132 kts 157°
2026-04-25 18:34 59.79719 5.27394 1485 ft 125 kts 156°
2026-04-25 18:34 59.78968 5.28105 1465 ft 115 kts 148°
2026-04-25 18:35 59.78326 5.29012 1453 ft 114 kts 137°
2026-04-25 18:35 59.77714 5.30018 1455 ft 115 kts 136°
2026-04-25 18:35 59.77096 5.31070 1433 ft 126 kts 136°
2026-04-25 18:35 59.76663 5.32522 1184 ft 119 kts 82°
2026-04-25 18:36 59.76696 5.34055 1088 ft 105 kts 71°
2026-04-25 18:36 59.77001 5.35095 926 ft 86 kts 32°
2026-04-25 18:36 59.77448 5.35677 671 ft 71 kts
2026-04-25 18:36 59.77918 5.35667 430 ft 63 kts 346°
2026-04-25 18:37 59.78307 5.35317 302 ft 72 kts 325°
2026-04-25 18:37 59.78696 5.34779 210 ft 56 kts 322°
2026-04-25 18:37 59.78962 5.34407 205 ft 55 kts 324°
2026-04-25 18:37 59.79350 5.33840 333 ft 73 kts 324°
2026-04-25 18:38 59.79735 5.33204 645 ft 67 kts 319°
2026-04-25 18:38 59.80034 5.32613 1055 ft 59 kts 317°
2026-04-25 18:38 59.79805 5.31721 1015 ft 108 kts 222°
2026-04-25 18:38 59.79031 5.31633 1040 ft 122 kts 163°
2026-04-25 18:39 59.78249 5.32214 1087 ft 126 kts 159°
2026-04-25 18:39 59.77494 5.32895 1112 ft 117 kts 153°
2026-04-25 18:39 59.76971 5.33981 936 ft 107 kts 88°
2026-04-25 18:39 59.76985 5.35383 807 ft 94 kts 56°
2026-04-25 18:40 59.77464 5.35919 682 ft 80 kts
2026-04-25 18:40 59.77925 5.35853 532 ft 61 kts 329°
2026-04-25 18:40 59.78299 5.35341 404 ft 63 kts 321°
2026-04-25 18:40 59.78653 5.34863 214 ft 57 kts 323°
2026-04-25 18:41 59.78813 5.34595 208 ft 0 kts 324°